GW3504 Weather Reports


time (UTC)temp
C
wind
direction
speed
KPH
gust
KPH
rain 1hr
cm
rain 24hr
cm
rain mn
cm
humidity
%
barometer
mb
20260504025023 20 0 0.0 0.0 0.00 0.00 0.00 51 1007.8
20260504024538 20 0 0.0 0.0 0.00 0.00 0.00 52 1007.8
20260504024023 20 0 0.0 0.0 0.00 0.00 0.00 52 1007.7
20260504023522 20 0 0.0 0.0 0.00 0.00 0.00 51 1007.7
20260504023038 20 0 0.0 0.0 0.00 0.00 0.00 51 1007.8
20260504022524 20 0 0.0 0.0 0.00 0.00 0.00 50 1007.8
20260504022022 21 0 0.0 0.0 0.00 0.00 0.00 52 1007.8
20260504021539 21 0 0.0 0.0 0.00 0.00 0.00 50 1007.8
20260504021020 21 0 0.0 0.0 0.00 0.00 0.00 50 1007.7
20260504020523 21 0 0.0 0.0 0.00 0.00 0.00 49 1007.8
20260504020040 21 0 0.0 0.0 0.00 0.00 0.00 50 1007.8
20260504015524 21 0 0.0 3.2 0.00 0.00 0.00 50 1007.8
20260504015025 21 0 0.0 3.2 0.00 0.00 0.00 50 1007.8
20260504014543 21 0 0.0 1.6 0.00 0.00 0.00 49 1007.8
20260504014023 21 0 0.0 0.0 0.00 0.00 0.00 49 1007.7
20260504013523 22 0 0.0 0.0 0.00 0.00 0.00 48 1007.8
20260504013041 22 0 0.0 0.0 0.00 0.00 0.00 48 1007.7
20260504012521 22 0 0.0 0.0 0.00 0.00 0.00 46 1007.7
20260504012024 22 0 0.0 0.0 0.00 0.00 0.00 45 1007.7
20260504011540 23 0 0.0 1.6 0.00 0.00 0.00 44 1007.6
20260504011021 23 0 0.0 3.2 0.00 0.00 0.00 43 1007.7
20260504010522 23 0 0.0 3.2 0.00 0.00 0.00 43 1007.6
20260504010048 23 0 0.0 3.2 0.00 0.00 0.00 42 1007.7
20260504005524 23 0 0.0 0.0 0.00 0.00 0.00 42 1007.7
20260504005021 23 0 0.0 0.0 0.00 0.00 0.00 42 1007.7
20260504004539 24 0 0.0 0.0 0.00 0.00 0.00 42 1007.8
20260504004024 24 0 0.0 0.0 0.00 0.00 0.00 41 1007.8
20260504003523 25 0 0.0 0.0 0.00 0.00 0.00 40 1007.8
20260504003040 25 0 0.0 1.6 0.00 0.00 0.00 40 1007.8
20260504002523 25 0 0.0 3.2 0.00 0.00 0.00 39 1007.9
20260504002022 25 0 0.0 3.2 0.00 0.00 0.00 39 1007.8
20260504001548 25 0 0.0 6.4 0.00 0.00 0.00 38 1007.9
20260504001024 25 0 0.0 8.0 0.00 0.00 0.00 38 1007.8
20260504000522 25 40 0.0 8.0 0.00 0.00 0.00 37 1007.8
20260504000038 25 0 0.0 8.0 0.00 0.00 0.00 37 1008.0
20260503235524 25 352 1.6 9.7 0.00 0.00 0.00 37 1008.2
20260503235021 26 25 1.6 9.7 0.00 0.00 0.00 37 1008.1
20260503234600 26 19 1.6 6.4 0.00 0.00 0.00 37 1008.1
20260503234023 26 28 0.0 6.4 0.00 0.00 0.00 37 1008.3
20260503233524 26 28 1.6 4.8 0.00 0.00 0.00 36 1008.2
20260503233044 26 0 1.6 6.4 0.00 0.00 0.00 35 1008.3
20260503232523 26 0 1.6 6.4 0.00 0.00 0.00 35 1008.3
20260503232023 26 41 1.6 8.0 0.00 0.00 0.00 34 1008.4
20260503231537 26 0 0.0 8.0 0.00 0.00 0.00 35 1008.6
20260503231028 26 5 1.6 8.0 0.00 0.00 0.00 34 1008.6
20260503230521 26 19 1.6 6.4 0.00 0.00 0.00 34 1008.5
20260503230038 26 19 1.6 11.3 0.00 0.00 0.00 35 1008.6
20260503225523 26 20 3.2 11.3 0.00 0.00 0.00 33 1008.7
20260503225023 27 11 3.2 8.0 0.00 0.00 0.00 34 1008.6
20260503224536 27 296 0.0 8.0 0.00 0.00 0.00 32 1008.7
20260503224021 27 0 1.6 8.0 0.00 0.00 0.00 34 1008.6
20260503223520 27 352 1.6 16.1 0.00 0.00 0.00 32 1008.8
20260503223039 27 315 8.0 16.1 0.00 0.00 0.00 32 1008.7
20260503222523 27 0 0.0 14.5 0.00 0.00 0.00 31 1008.7
20260503222023 27 321 3.2 14.5 0.00 0.00 0.00 31 1008.7
20260503221539 27 288 1.6 14.5 0.00 0.00 0.00 33 1008.6
20260503221023 27 248 4.8 14.5 0.00 0.00 0.00 32 1008.8
20260503220522 27 310 1.6 22.5 0.00 0.00 0.00 33 1008.8
20260503220036 27 351 3.2 22.5 0.00 0.00 0.00 34 1009.0
20260503215523 27 308 6.4 17.7 0.00 0.00 0.00 32 1009.0
20260503215024 27 340 3.2 17.7 0.00 0.00 0.00 34 1009.0
20260503214540 27 351 6.4 17.7 0.00 0.00 0.00 33 1009.2
20260503214023 27 283 3.2 20.9 0.00 0.00 0.00 33 1009.2
20260503213523 27 281 9.7 20.9 0.00 0.00 0.00 33 1009.2
20260503213038 27 273 6.4 20.9 0.00 0.00 0.00 32 1009.4
20260503212525 28 274 4.8 24.1 0.00 0.00 0.00 31 1009.4
20260503212023 28 301 4.8 25.7 0.00 0.00 0.00 30 1009.4
20260503211539 27 301 9.7 25.7 0.00 0.00 0.00 31 1009.4
20260503211023 28 316 3.2 20.9 0.00 0.00 0.00 31 1009.5
20260503210522 28 306 3.2 20.9 0.00 0.00 0.00 31 1009.6
20260503210036 27 213 6.4 25.7 0.00 0.00 0.00 30 1009.8
20260503205524 27 270 8.0 25.7 0.00 0.00 0.00 29 1009.8
20260503205023 27 302 9.7 22.5 0.00 0.00 0.00 28 1010.0
20260503204545 27 178 6.4 20.9 0.00 0.00 0.00 32 1010.0
20260503204021 28 335 9.7 20.9 0.00 0.00 0.00 31 1010.0
20260503203523 28 290 4.8 19.3 0.00 0.00 0.00 31 1010.1
20260503203052 28 301 8.0 17.7 0.00 0.00 0.00 31 1010.1
20260503202522 28 290 3.2 14.5 0.00 0.00 0.00 32 1010.2
20260503202028 27 46 3.2 17.7 0.00 0.00 0.00 33 1010.3
20260503201537 28 184 6.4 17.7 0.00 0.00 0.00 31 1010.4
20260503201023 28 0 0.0 17.7 0.00 0.00 0.00 33 1010.4
20260503200523 27 0 3.2 19.3 0.00 0.00 0.00 33 1010.4
20260503200039 27 300 4.8 20.9 0.00 0.00 0.00 36 1010.6
20260503195524 27 0 9.7 20.9 0.00 0.00 0.00 33 1010.6
20260503195027 27 277 3.2 14.5 0.00 0.00 0.00 36 1010.7
20260503194552 27 267 3.2 17.7 0.00 0.00 0.00 35 1010.7
20260503194023 27 140 3.2 17.7 0.00 0.00 0.00 35 1010.8
20260503193527 26 311 9.7 17.7 0.00 0.00 0.00 36 1010.8
20260503193045 27 192 3.2 17.7 0.00 0.00 0.00 35 1010.8
20260503192524 26 296 1.6 17.7 0.00 0.00 0.00 36 1010.9
20260503192023 27 274 3.2 17.7 0.00 0.00 0.00 36 1011.0
20260503191538 26 297 6.4 17.7 0.00 0.00 0.00 35 1011.0
20260503191023 26 311 6.4 14.5 0.00 0.00 0.00 37 1011.2
20260503190523 26 310 4.8 16.1 0.00 0.00 0.00 37 1011.3
20260503190039 26 254 4.8 17.7 0.00 0.00 0.00 36 1011.4
20260503185523 26 281 1.6 17.7 0.00 0.00 0.00 35 1011.5
20260503185024 26 304 4.8 17.7 0.00 0.00 0.00 37 1011.6
20260503184539 26 233 4.8 17.7 0.00 0.00 0.00 37 1011.6
20260503184024 25 247 8.0 17.7 0.00 0.00 0.00 37 1011.7
20260503183522 25 282 4.8 16.1 0.00 0.00 0.00 38 1011.7
20260503183042 25 288 3.2 14.5 0.00 0.00 0.00 38 1011.7
20260503182523 25 294 3.2 19.3 0.00 0.00 0.00 40 1011.9
20260503182024 25 295 4.8 22.5 0.00 0.00 0.00 39 1012.0
20260503181539 25 296 9.7 22.5 0.00 0.00 0.00 38 1012.1
20260503181024 25 259 6.4 17.7 0.00 0.00 0.00 39 1012.1
20260503180524 25 287 3.2 11.3 0.00 0.00 0.00 39 1012.1
20260503180041 25 67 1.6 14.5 0.00 0.00 0.00 42 1012.2
20260503175523 25 121 3.2 16.1 0.00 0.00 0.00 43 1012.2
20260503175024 25 212 4.8 16.1 0.00 0.00 0.00 44 1012.2
20260503174537 24 263 3.2 19.3 0.00 0.00 0.00 45 1012.3
20260503174027 24 343 3.2 20.9 0.00 0.00 0.00 45 1012.3
20260503173523 23 321 4.8 24.1 0.00 0.00 0.00 46 1012.5
20260503173044 23 137 4.8 24.1 0.00 0.00 0.00 46 1012.5
20260503172522 23 175 3.2 16.1 0.00 0.00 0.00 45 1012.6
20260503172023 23 175 3.2 14.5 0.00 0.00 0.00 46 1012.7
20260503171547 23 13 4.8 16.1 0.00 0.00 0.00 46 1012.9
20260503171026 22 167 4.8 20.9 0.00 0.00 0.00 46 1013.0
20260503170524 22 202 3.2 20.9 0.00 0.00 0.00 47 1013.0
20260503150523 18 295 8.0 22.5 0.00 0.00 0.00 52 1013.5
20260503131028 12 120 3.2 17.7 0.00 0.00 0.00 61 1014.5
20260503130527 12 238 1.6 17.7 0.00 0.00 0.00 62 1014.6
20260503110524 10 135 4.8 20.9 0.00 0.00 0.00 54 1014.7
20260503081537 10 169 3.2 14.5 0.00 0.00 0.00 56 1016.1
20260503081029 10 206 3.2 14.5 0.00 0.00 0.00 55 1016.1
20260503080524 10 167 3.2 14.5 0.00 0.00 0.00 56 1016.1
20260503072525 10 0 0.0 12.9 0.00 0.00 0.00 58 1016.4
20260503072025 10 196 0.0 11.3 0.00 0.00 0.00 57 1016.5
20260503071551 10 0 1.6 9.7 0.00 0.00 0.00 57 1016.4
20260503071025 10 0 1.6 9.7 0.00 0.00 0.00 58 1016.5
20260503070527 10 0 1.6 9.7 0.00 0.00 0.00 58 1016.5
20260503055024 9 0 0.0 8.0 0.00 0.00 0.00 61 1017.5
20260503054549 9 0 0.0 8.0 0.00 0.00 0.00 61 1017.5
20260503054024 9 184 0.0 4.8 0.00 0.00 0.00 61 1017.6
20260503053523 9 161 0.0 3.2 0.00 0.00 0.00 60 1017.6
20260503053037 9 0 0.0 3.2 0.00 0.00 0.00 61 1017.7
20260503052523 9 0 0.0 3.2 0.00 0.00 0.00 61 1017.7
20260503052026 9 0 0.0 0.0 0.00 0.00 0.00 61 1017.7
20260503051537 9 0 0.0 0.0 0.00 0.00 0.00 61 1017.8
20260503051023 9 0 0.0 0.0 0.00 0.00 0.00 61 1017.8
20260503050524 8 0 0.0 0.0 0.00 0.00 0.00 61 1017.9
20260503050040 8 0 0.0 0.0 0.00 0.00 0.00 61 1018.0
20260503045524 9 0 0.0 0.0 0.00 0.00 0.00 62 1017.9
20260503045029 9 0 0.0 0.0 0.00 0.00 0.00 61 1018.0
20260503044537 9 0 0.0 0.0 0.00 0.00 0.00 61 1018.1
20260503044024 9 0 0.0 0.0 0.00 0.00 0.00 60 1018.2
20260503043528 9 0 0.0 0.0 0.00 0.00 0.00 60 1018.1
20260503043034 9 0 0.0 0.0 0.00 0.00 0.00 60 1018.1
20260503042525 10 0 0.0 0.0 0.00 0.00 0.00 60 1018.2
20260503042025 10 0 0.0 0.0 0.00 0.00 0.00 60 1018.2
20260503041543 10 0 0.0 0.0 0.00 0.00 0.00 59 1018.3
20260503041026 10 0 0.0 0.0 0.00 0.00 0.00 59 1018.2
20260503040524 10 0 0.0 0.0 0.00 0.00 0.00 58 1018.3
20260503040049 10 0 0.0 0.0 0.00 0.00 0.00 58 1018.3
20260503035525 10 0 0.0 0.0 0.00 0.00 0.00 59 1018.3
20260503035025 10 0 0.0 0.0 0.00 0.00 0.00 58 1018.3
20260503034535 10 0 0.0 0.0 0.00 0.00 0.00 58 1018.4
20260503034025 10 0 0.0 0.0 0.00 0.00 0.00 58 1018.4
20260503033524 10 0 0.0 0.0 0.00 0.00 0.00 57 1018.5
20260503033038 10 0 0.0 0.0 0.00 0.00 0.00 57 1018.6
20260503032527 10 0 0.0 0.0 0.00 0.00 0.00 57 1018.6
20260503032024 10 0 0.0 0.0 0.00 0.00 0.00 57 1018.7
20260503031536 11 0 0.0 0.0 0.00 0.00 0.00 56 1018.7
20260503031025 11 0 0.0 0.0 0.00 0.00 0.00 55 1018.8
20260503030524 11 0 0.0 0.0 0.00 0.00 0.00 55 1018.7
20260503030048 11 0 0.0 0.0 0.00 0.00 0.00 55 1018.8
20260503025522 11 0 0.0 0.0 0.00 0.00 0.00 54 1018.7